This is the latest recevied weather packets stored in our database for station/object RN1M-13. If no packets are shown the sender has not sent any weather packets the latest 10 day(s).
| Time | Temp. | Humidity | Pressure | Rain* | Wind** | Luminosity | Snow |
|---|---|---|---|---|---|---|---|
| 1777938271 | 9.44° C | 100% | 995.7 hPa | - | - | - | - |
| 1777937371 | 9.44° C | 100% | 995.5 hPa | - | - | - | - |
| 1777936506 | 9.44° C | 100% | 995.6 hPa | - | - | - | - |
| 1777936471 | 9.44° C | 100% | 995.6 hPa | - | - | - | - |
| 1777935573 | 9.44° C | 100% | 996.8 hPa | - | - | - | - |
| 1777934681 | 10° C | 100% | 995.5 hPa | - | - | - | - |
| 1777933781 | 10° C | 100% | 995.1 hPa | - | - | - | - |
| 1777932880 | 9.44° C | 100% | 994.9 hPa | - | - | - | - |
| 1777931980 | 8.89° C | 100% | 994.7 hPa | - | - | - | - |
| 1777931080 | 10° C | 100% | 994.9 hPa | - | - | - | - |
| 1777930180 | 10° C | 100% | 995 hPa | - | - | - | - |
| 1777929280 | 10° C | 100% | 995.1 hPa | - | - | - | - |
| 1777928380 | 10.56° C | 100% | 994.8 hPa | - | - | - | - |
| 1777927480 | 10.56° C | 100% | 995.3 hPa | - | - | - | - |
| 1777926580 | 10.56° C | 100% | 995.5 hPa | - | - | - | - |
| 1777925680 | 10° C | 100% | 996.1 hPa | - | - | - | - |
| 1777924782 | 11.11° C | 100% | 996.9 hPa | - | - | - | - |
| 1777923889 | 11.67° C | 100% | 996.2 hPa | - | - | - | - |
| 1777922989 | 11.67° C | 100% | 996.2 hPa | - | - | - | - |
| 1777922089 | 11.11° C | 100% | 996.2 hPa | - | - | - | - |
| 1777921189 | 12.22° C | 100% | 996.1 hPa | - | - | - | - |
| 1777920289 | 13.33° C | 100% | 995.7 hPa | - | - | - | - |
| 1777919389 | 13.33° C | 100% | 995.9 hPa | - | - | - | - |
| 1777918489 | 12.78° C | 100% | 995.9 hPa | - | - | - | - |
| 1777917589 | 12.78° C | 100% | 995.8 hPa | - | - | - | - |
* Rain since midnight (hover to see other rain measurements)
** Current wind speed in m/s (hover to see current wind gust speed)